^^
Scobey's Weather Historical Data
 
Daily Summary for June 25, 2018 Units:  English    Metric   Both
Daily Weekly Monthly Yearly Custom
  Current: High: Low: Average:
Temperature: 48.7 °F 53.1 °F 48.5 °F 50.5 °F
Dew Point: 43.1 °F 46.0 °F 42.6 °F 44.1 °F
Humidity: 81% 81% 75% 79%
Wind Speed: 0.0mph 0.0mph 0.0mph 0mph
Wind Gust: 0.0mph 0.0mph - -
WindCalm - -
Pressure: 29.86 in 29.87 in 29.86 in -
Precipitation: 0.00 in      
Historical Graphs
 
 
Tabular Data for June 25, 2018
Time Temperature Dew Point Pressure Wind Wind Speed Wind Gust Humidity Rainfall Rate (Hourly) solar
00:04 53.1 °F 45.7 °F 29.87 in Calm     76% 0.00 in 0.00 W/m2
00:09 52.9 °F 45.9 °F 29.87 in Calm     77% 0.00 in 0.00 W/m2
00:14 52.7 °F 45.7 °F 29.87 in Calm     77% 0.00 in 0.00 W/m2
00:19 52.6 °F 45.6 °F 29.87 in Calm     77% 0.00 in 0.00 W/m2
00:24 52.6 °F 45.6 °F 29.87 in Calm     77% 0.00 in 0.00 W/m2
00:29 52.6 °F 45.9 °F 29.87 in Calm     78% 0.00 in 0.00 W/m2
00:34 52.5 °F 45.8 °F 29.87 in Calm     78% 0.00 in 0.00 W/m2
00:39 52.4 °F 45.7 °F 29.87 in Calm     78% 0.00 in 0.00 W/m2
00:44 52.4 °F 45.7 °F 29.87 in Calm     78% 0.00 in 0.00 W/m2
00:49 52.3 °F 46.0 °F 29.87 in Calm     79% 0.00 in 0.00 W/m2
00:54 52.3 °F 46.0 °F 29.87 in Calm     79% 0.00 in 0.00 W/m2
00:59 52.2 °F 45.9 °F 29.87 in Calm     79% 0.00 in 0.00 W/m2
01:04 52.2 °F 45.9 °F 29.87 in Calm     79% 0.00 in 0.00 W/m2
01:09 52.2 °F 45.9 °F 29.87 in Calm     79% 0.00 in 0.00 W/m2
01:14 52.2 °F 45.5 °F 29.87 in Calm     78% 0.00 in 0.00 W/m2
01:19 52.3 °F 45.6 °F 29.87 in Calm     78% 0.00 in 0.00 W/m2
01:24 52.4 °F 45.4 °F 29.87 in Calm     77% 0.00 in 0.00 W/m2
01:29 52.5 °F 45.5 °F 29.87 in Calm     77% 0.00 in 0.00 W/m2
01:34 52.6 °F 45.2 °F 29.87 in Calm     76% 0.00 in 0.00 W/m2
01:39 52.7 °F 45.3 °F 29.87 in Calm     76% 0.00 in 0.00 W/m2
01:44 52.8 °F 45.4 °F 29.87 in Calm     76% 0.00 in 0.00 W/m2
01:49 52.7 °F 45.3 °F 29.87 in Calm     76% 0.00 in 0.00 W/m2
01:54 52.6 °F 45.2 °F 29.87 in Calm     76% 0.00 in 0.00 W/m2
01:59 52.4 °F 44.7 °F 29.87 in Calm     75% 0.00 in 0.00 W/m2
02:04 52.2 °F 44.9 °F 29.87 in Calm     76% 0.00 in 0.00 W/m2
02:09 52.1 °F 44.4 °F 29.87 in Calm     75% 0.00 in 0.00 W/m2
02:14 51.9 °F 44.6 °F 29.87 in Calm     76% 0.00 in 0.00 W/m2
02:19 51.7 °F 44.4 °F 29.86 in Calm     76% 0.00 in 0.00 W/m2
02:24 51.5 °F 44.2 °F 29.86 in Calm     76% 0.00 in 0.00 W/m2
02:29 51.2 °F 43.9 °F 29.87 in Calm     76% 0.00 in 0.00 W/m2
02:34 51.0 °F 43.7 °F 29.86 in Calm     76% 0.00 in 0.00 W/m2
02:39 50.7 °F 43.8 °F 29.87 in Calm     77% 0.00 in 0.00 W/m2
02:44 50.5 °F 43.6 °F 29.87 in Calm     77% 0.00 in 0.00 W/m2
02:49 50.3 °F 43.4 °F 29.86 in Calm     77% 0.00 in 0.00 W/m2
02:54 50.1 °F 43.5 °F 29.87 in Calm     78% 0.00 in 0.00 W/m2
02:59 49.9 °F 43.3 °F 29.87 in Calm     78% 0.00 in 0.00 W/m2
03:04 49.7 °F 43.1 °F 29.87 in Calm     78% 0.00 in 0.00 W/m2
03:09 49.5 °F 43.3 °F 29.86 in Calm     79% 0.00 in 0.00 W/m2
03:14 49.4 °F 43.2 °F 29.86 in Calm     79% 0.00 in 0.00 W/m2
03:19 49.1 °F 42.9 °F 29.86 in Calm     79% 0.00 in 0.00 W/m2
03:24 49.0 °F 42.8 °F 29.86 in Calm     79% 0.00 in 0.00 W/m2
03:29 48.8 °F 42.6 °F 29.86 in Calm     79% 0.00 in 0.00 W/m2
03:34 48.7 °F 42.8 °F 29.86 in Calm     80% 0.00 in 0.00 W/m2
03:39 48.6 °F 42.7 °F 29.86 in Calm     80% 0.00 in 0.00 W/m2
03:44 48.6 °F 42.7 °F 29.86 in Calm     80% 0.00 in 0.00 W/m2
03:49 48.5 °F 42.6 °F 29.86 in Calm     80% 0.00 in 0.00 W/m2
03:54 48.5 °F 42.6 °F 29.86 in Calm     80% 0.00 in 0.00 W/m2
03:59 48.6 °F 42.7 °F 29.86 in Calm     80% 0.00 in 0.00 W/m2
04:04 48.6 °F 42.7 °F 29.86 in Calm     80% 0.00 in 0.00 W/m2
04:09 48.6 °F 43.0 °F 29.86 in Calm     81% 0.00 in 0.00 W/m2
04:14 48.6 °F 43.0 °F 29.86 in Calm     81% 0.00 in 0.00 W/m2
04:19 48.7 °F 43.1 °F 29.86 in Calm     81% 0.00 in 0.00 W/m2
04:24 48.7 °F 43.1 °F 29.86 in Calm     81% 0.00 in 0.00 W/m2
04:29 48.7 °F 43.1 °F 29.86 in Calm     81% 0.00 in 0.00 W/m2
04:34 48.7 °F 43.1 °F 29.86 in Calm     81% 0.00 in 0.00 W/m2
04:39 48.8 °F 43.2 °F 29.86 in Calm     81% 0.00 in 0.00 W/m2
04:44 48.8 °F 43.2 °F 29.86 in Calm     81% 0.00 in 0.00 W/m2
04:49 48.9 °F 43.3 °F 29.86 in Calm     81% 0.00 in 0.00 W/m2
04:54 48.9 °F 43.3 °F 29.86 in Calm     81% 0.00 in 5.00 W/m2
04:59 48.9 °F 43.3 °F 29.86 in Calm     81% 0.00 in 5.00 W/m2
05:04 48.9 °F 43.3 °F 29.86 in Calm     81% 0.00 in 7.00 W/m2
05:09 48.9 °F 43.3 °F 29.86 in Calm     81% 0.00 in 9.00 W/m2
05:14 48.9 °F 43.3 °F 29.86 in Calm     81% 0.00 in 11.00 W/m2
05:19 48.8 °F 43.2 °F 29.86 in Calm     81% 0.00 in 11.00 W/m2
05:24 48.8 °F 43.2 °F 29.86 in Calm     81% 0.00 in 11.00 W/m2
05:29 48.7 °F 43.1 °F 29.86 in Calm     81% 0.00 in 11.00 W/m2
05:34 48.7 °F 43.1 °F 29.86 in Calm     81% 0.00 in 11.00 W/m2
05:39 48.7 °F 43.1 °F 29.86 in Calm     81% 0.00 in 11.00 W/m2
05:44 48.7 °F 43.1 °F 29.86 in Calm     81% 0.00 in 11.00 W/m2
Scobey\s Weather
Compliments of Weather Underground - 2 mb

USA Weather Finder






Flag Counter